Weather History for KBUF - November, 2012

Change the Weather History Date:

Saturday, November 10, 2012

  Actual Average Record
Temperature  
Mean Temperature 49 °F 43 °F  
Max Temperature 54 °F 50 °F 69 °F (1975)
Min Temperature 43 °F 36 °F 19 °F (1991)
Degree Days  
Heating Degree Days 16 22  
Month to date heating degree days 269 208  
Since 1 July heating degree days 786 813  
Cooling Degree Days 0 0  
Month to date cooling degree days 0 0  
Year to date cooling degree days 875 544  
Moisture  
Dew Point 41 °F    
Average Humidity 76    
Maximum Humidity 89    
Minimum Humidity 63    
Precipitation  
Precipitation T in 0.12 in 1.30 in (1898)
Month to date precipitation 0.42 1.30  
Year to date precipitation 28.53 33.88  
Snow  
Snow 0.00 in 0.20 in 6.20 in (1913)
Month to date snowfall T 1.5  
Since 1 July snowfall T 2.4  
Since 1 September snowfall T 2.4  
Snow Depth 0.00 in    
Sea Level Pressure  
Sea Level Pressure 30.22 in    
Wind  
Wind Speed 5 mph (ESE)    
Max Wind Speed 10 mph    
Max Gust Speed 13 mph    
Visibility 7 miles    
Events      
T = Trace of Precipitation, MM = Missing Value Source: NWS Daily Summary

Daily Weather History Graph

Daily Weather History Graph

Search for Another Location

Airport or City:

Trip Planner

Search our weather history database for the weather conditions in past years. The results will help you decide how hot, cold, wet, or windy it might be!

Date:

Astronomy

Nov. 10, 2012 Rise Set
Actual Time 7:01 AM EST 4:55 PM EST
Civil Twilight 6:31 AM EST 5:26 PM EST
Nautical Twilight 5:57 AM EST 6:00 PM EST
Astronomical Twilight 5:23 AM EST 6:33 PM EST
Moon 2:59 AM EST (11/10) 2:45 PM EST (11/10)
Length of Visible Light 10h 54m
Length of Day
9h 54m
Waning Crescent, 14% of the Moon is Illuminated
Nov 10
Waning Crescent
Nov 13
New
Nov 20
First Quarter
Nov 28
Full
Dec 6
Last Quarter

Hourly Weather History & Observations

Time (EST) Temp. Windchill Dew Point Humidity Pressure Visibility Wind Dir Wind Speed Gust Speed Precip Events Conditions
12:54 AM 43.0 °F 40.3 °F 39.9 °F 89% 30.20 in 4.0 mi South 4.6 mph - 0.00 in   Overcast
1:54 AM 43.0 °F 39.5 °F 39.9 °F 89% 30.21 in 4.0 mi South 5.8 mph - N/A   Overcast
2:54 AM 43.0 °F 40.3 °F 39.0 °F 86% 30.21 in 4.0 mi South 4.6 mph - N/A   Overcast
3:54 AM 43.0 °F 41.3 °F 39.0 °F 86% 30.21 in 4.0 mi SSE 3.5 mph - N/A   Overcast
4:54 AM 43.0 °F - 37.9 °F 82% 30.24 in 5.0 mi Calm Calm - N/A   Haze
5:54 AM 43.0 °F 40.3 °F 39.0 °F 86% 30.24 in 6.0 mi NE 4.6 mph - N/A   Overcast
6:54 AM 43.0 °F 40.3 °F 39.0 °F 86% 30.25 in 4.0 mi East 4.6 mph - N/A   Overcast
7:54 AM 43.0 °F 39.5 °F 39.0 °F 86% 30.27 in 3.0 mi East 5.8 mph - N/A   Overcast
8:54 AM 46.0 °F - 39.9 °F 79% 30.28 in 3.0 mi Calm Calm - N/A   Haze
9:54 AM 46.9 °F - 39.9 °F 77% 30.28 in 4.0 mi Calm Calm - N/A   Haze
10:54 AM 48.9 °F - 39.9 °F 71% 30.27 in 6.0 mi South 3.5 mph - N/A   Haze
11:54 AM 50.0 °F - 39.9 °F 68% 30.25 in 7.0 mi Calm Calm - N/A   Overcast
12:54 PM 52.0 °F - 41.0 °F 66% 30.22 in 10.0 mi SE 3.5 mph - N/A   Mostly Cloudy
1:54 PM 52.0 °F - 39.9 °F 63% 30.21 in 10.0 mi ESE 6.9 mph - N/A   Overcast
2:54 PM 52.0 °F - 41.0 °F 66% 30.19 in 10.0 mi ESE 8.1 mph - N/A   Overcast
3:54 PM 53.1 °F - 41.0 °F 64% 30.19 in 10.0 mi East 6.9 mph - N/A   Overcast
4:54 PM 52.0 °F - 42.1 °F 69% 30.22 in 10.0 mi East 8.1 mph - N/A   Mostly Cloudy
5:54 PM 51.1 °F - 42.1 °F 71% 30.23 in 10.0 mi East 8.1 mph - N/A   Overcast
6:54 PM 50.0 °F - 41.0 °F 71% 30.22 in 10.0 mi East 9.2 mph - N/A   Overcast
7:54 PM 50.0 °F - 42.1 °F 74% 30.22 in 10.0 mi ESE 6.9 mph - N/A   Mostly Cloudy
8:54 PM 51.1 °F - 43.0 °F 74% 30.19 in 10.0 mi SE 8.1 mph - N/A   Overcast
9:54 PM 51.1 °F - 43.0 °F 74% 30.18 in 10.0 mi ESE 5.8 mph - N/A   Overcast
10:54 PM 51.8 °F - 42.8 °F 71% 30.16 in 10.0 mi SE 5.8 mph - N/A   Overcast
11:54 PM 54.0 °F - 43.0 °F 66% 30.15 in 10.0 mi SSE 6.9 mph - N/A   Overcast